パンスターズ彗星

C/2016 A5 ( PanSTARRS )

English version
Home page
Updated on July 9, 2016

---------------------------------------------------------------------

・ プロフィール

発見日 2016年1月9日
発見光度 22.2等
発見者 Pan-STARRS 1 telescope (Haleakala)

・ 写真集

・ 軌道要素

Epoch 2015 June 27.0 TT = JDT 2457200.5
T 2015 June 28.26200 TT                                 MPCW
q   2.9467568            (2000.0)            P               Q
z  +0.0011580      Peri.  321.60243     -0.23814566     -0.86183455
 +/-0.0000110      Node   136.21467     +0.97107901     -0.20317424
e   0.9965876      Incl.   40.32734     -0.01709411     +0.46471651
From 26 observations 2015 Dec. 17-2016 Feb. 15, mean residual 0".3.

・ 光度変化

        m1 = 13.0 + 5 logΔ + 10.0 log r

---------------------------------------------------------------------

軌道要素はM.P.E.C. 2016-E139に掲載されたものです。
光度グラフはComet for Windowsで作成したものです。

---------------------------------------------------------------------

Copyright(C) Seiichi Yoshida (comet@aerith.net). All rights reserved.